Location: ???? ????
(41.4149°N, 22.8816°E)
Time: 15:00:28
(UTC+00:00)

Cosmos 1500 - Pass Details

Date: 14 July 2020
Orbit: 498 x 521 km, 82.5° (Epoch: 04 August)

Event Time Altitude Azimuth Distance (km) Brightness Sun altitude
Exits shadow 00:58:27 26° 279° (W) 1,034 4.4 -18.7°
Maximum altitude 00:58:39 26° 284° (WNW) 1,030 4.5 -18.6°
Drops below altitude 10° 01:01:54 10° 343° (NNW) 1,735 6.3 -18.3°
Sets 01:04:17 0° 356° (N) 2,621 7.6 -18.0°
